| time (UTC) | temp F | wind direction | speed knots | gust knots | rain 1hr in | rain 24hr in | rain mn in | humidity % | barometer mb |
| 20260902031548 | 78 | 250 | 8.7 | 21.7 | 0.00 | 0.00 | 0.00 | 43 | 1013.1 |
| 20260902031047 | 78 | 259 | 9.6 | 21.7 | 0.00 | 0.00 | 0.00 | 43 | 1013.2 |
| 20260902030545 | 78 | 287 | 7.8 | 14.8 | 0.00 | 0.00 | 0.00 | 44 | 1013.4 |
| 20260902030048 | 78 | 288 | 7.8 | 14.8 | 0.00 | 0.00 | 0.00 | 44 | 1013.5 |
| 20260902025543 | 78 | 226 | 8.7 | 14.8 | 0.00 | 0.00 | 0.00 | 43 | 1013.6 |
| 20260902025042 | 78 | 325 | 7.0 | 14.8 | 0.00 | 0.00 | 0.00 | 44 | 1013.7 |
| 20260902024540 | 78 | 234 | 9.6 | 14.8 | 0.00 | 0.00 | 0.00 | 44 | 1013.8 |
| 20260902024040 | 78 | 210 | 7.0 | 18.2 | 0.00 | 0.00 | 0.00 | 44 | 1014.0 |
| 20260902023538 | 77 | 296 | 7.8 | 18.2 | 0.00 | 0.00 | 0.00 | 45 | 1014.0 |
| 20260902023043 | 77 | 278 | 9.6 | 20.9 | 0.00 | 0.00 | 0.00 | 45 | 1014.2 |
| 20260902022534 | 76 | 348 | 9.6 | 20.9 | 0.00 | 0.00 | 0.00 | 46 | 1014.3 |
| 20260902022033 | 76 | 276 | 8.7 | 18.2 | 0.00 | 0.00 | 0.00 | 46 | 1014.4 |
| 20260902021542 | 75 | 236 | 7.0 | 15.6 | 0.00 | 0.00 | 0.00 | 48 | 1014.5 |
| 20260902021031 | 74 | 243 | 9.6 | 19.1 | 0.00 | 0.00 | 0.00 | 47 | 1014.7 |
| 20260902020530 | 74 | 266 | 9.6 | 20.9 | 0.00 | 0.00 | 0.00 | 47 | 1014.8 |
| 20260902020030 | 74 | 234 | 10.4 | 20.9 | 0.00 | 0.00 | 0.00 | 47 | 1015.0 |
| 20260902015530 | 74 | 267 | 11.3 | 20.0 | 0.00 | 0.00 | 0.00 | 47 | 1015.0 |
| 20260902015028 | 74 | 268 | 8.7 | 20.0 | 0.00 | 0.00 | 0.00 | 47 | 1015.0 |
| 20260902014527 | 74 | 305 | 7.8 | 20.0 | 0.00 | 0.00 | 0.00 | 48 | 1015.2 |
| 20260902014026 | 74 | 250 | 11.3 | 16.5 | 0.00 | 0.00 | 0.00 | 47 | 1015.3 |
| 20260902013529 | 74 | 244 | 9.6 | 20.0 | 0.00 | 0.00 | 0.00 | 47 | 1015.4 |
| 20260902013024 | 74 | 277 | 9.6 | 20.0 | 0.00 | 0.00 | 0.00 | 47 | 1015.5 |
| 20260902012523 | 74 | 243 | 6.1 | 20.9 | 0.00 | 0.00 | 0.00 | 48 | 1015.6 |
| 20260902012021 | 74 | 273 | 10.4 | 20.0 | 0.00 | 0.00 | 0.00 | 47 | 1015.7 |
| 20260902011521 | 74 | 267 | 9.6 | 17.4 | 0.00 | 0.00 | 0.00 | 48 | 1015.8 |
| 20260902011021 | 73 | 243 | 4.3 | 7.8 | 0.00 | 0.00 | 0.00 | 53 | 1015.9 |
| 20260902010517 | 72 | 261 | 3.5 | 10.4 | 0.00 | 0.00 | 0.00 | 54 | 1016.1 |
| 20260902010016 | 71 | 302 | 5.2 | 11.3 | 0.00 | 0.00 | 0.00 | 54 | 1016.1 |
| 20260902005517 | 71 | 294 | 3.5 | 16.5 | 0.00 | 0.00 | 0.00 | 54 | 1016.2 |
| 20260902005015 | 71 | 250 | 5.2 | 16.5 | 0.00 | 0.00 | 0.00 | 55 | 1016.4 |
| 20260902004517 | 70 | 278 | 7.0 | 14.8 | 0.00 | 0.00 | 0.00 | 55 | 1016.4 |
| 20260902004012 | 69 | 251 | 4.3 | 15.6 | 0.00 | 0.00 | 0.00 | 56 | 1016.4 |
| 20260902003511 | 69 | 274 | 9.6 | 17.4 | 0.00 | 0.00 | 0.00 | 55 | 1016.5 |
| 20260902003010 | 69 | 240 | 7.8 | 16.5 | 0.00 | 0.00 | 0.00 | 56 | 1016.4 |
| 20260902002510 | 69 | 307 | 7.0 | 17.4 | 0.00 | 0.00 | 0.00 | 56 | 1016.5 |
| 20260902002015 | 68 | 315 | 7.8 | 17.4 | 0.00 | 0.00 | 0.00 | 56 | 1016.6 |
| 20260902001509 | 68 | 288 | 8.7 | 17.4 | 0.00 | 0.00 | 0.00 | 56 | 1016.6 |
| 20260902001009 | 68 | 256 | 7.0 | 12.2 | 0.00 | 0.00 | 0.00 | 57 | 1016.7 |
| 20260902000508 | 68 | 247 | 7.0 | 12.2 | 0.00 | 0.00 | 0.00 | 57 | 1016.9 |
| 20260902000009 | 68 | 244 | 6.1 | 11.3 | 0.00 | 0.00 | 0.00 | 57 | 1017.0 |
| 20260901235508 | 68 | 266 | 6.1 | 13.0 | 0.00 | 0.00 | 0.00 | 57 | 1017.1 |
| 20260901235007 | 68 | 251 | 7.0 | 13.0 | 0.00 | 0.00 | 0.00 | 57 | 1017.1 |
| 20260901234508 | 68 | 267 | 6.1 | 13.0 | 0.00 | 0.00 | 0.00 | 56 | 1017.0 |
| 20260901234008 | 68 | 267 | 7.0 | 13.0 | 0.00 | 0.00 | 0.00 | 56 | 1017.0 |
| 20260901233507 | 67 | 264 | 7.8 | 16.5 | 0.00 | 0.00 | 0.00 | 56 | 1017.2 |
| 20260901233007 | 67 | 278 | 7.8 | 20.0 | 0.00 | 0.00 | 0.00 | 56 | 1017.2 |
| 20260901232507 | 67 | 253 | 9.6 | 20.0 | 0.00 | 0.00 | 0.00 | 55 | 1017.2 |
| 20260901232006 | 67 | 285 | 9.6 | 16.5 | 0.00 | 0.00 | 0.00 | 55 | 1017.3 |
| 20260901231509 | 67 | 285 | 8.7 | 15.6 | 0.00 | 0.00 | 0.00 | 55 | 1017.4 |
| 20260901231007 | 67 | 298 | 8.7 | 20.9 | 0.00 | 0.00 | 0.00 | 56 | 1017.4 |
| 20260901230506 | 67 | 279 | 7.8 | 20.9 | 0.00 | 0.00 | 0.00 | 56 | 1017.5 |
| 20260901230006 | 67 | 259 | 7.8 | 15.6 | 0.00 | 0.00 | 0.00 | 56 | 1017.6 |
| 20260901225506 | 67 | 278 | 7.8 | 15.6 | 0.00 | 0.00 | 0.00 | 57 | 1017.7 |
| 20260901225007 | 67 | 247 | 7.8 | 17.4 | 0.00 | 0.00 | 0.00 | 57 | 1017.8 |
| 20260901224506 | 67 | 306 | 8.7 | 17.4 | 0.00 | 0.00 | 0.00 | 58 | 1017.7 |
| 20260901224005 | 66 | 267 | 10.4 | 16.5 | 0.00 | 0.00 | 0.00 | 59 | 1017.7 |
| 20260901223505 | 66 | 265 | 5.2 | 13.0 | 0.00 | 0.00 | 0.00 | 61 | 1017.8 |
| 20260901223013 | 67 | 313 | 6.1 | 10.4 | 0.00 | 0.00 | 0.00 | 61 | 1017.9 |
| 20260901222506 | 67 | 251 | 3.5 | 10.4 | 0.00 | 0.00 | 0.00 | 59 | 1017.9 |
| 20260901222007 | 68 | 273 | 2.6 | 11.3 | 0.00 | 0.00 | 0.00 | 59 | 1018.0 |
| 20260901221504 | 69 | 288 | 5.2 | 11.3 | 0.00 | 0.00 | 0.00 | 58 | 1018.1 |
| 20260901221004 | 68 | 46 | 3.5 | 10.4 | 0.00 | 0.00 | 0.00 | 54 | 1017.7 |
| 20260901220501 | 68 | 261 | 7.0 | 11.3 | 0.00 | 0.00 | 0.00 | 55 | 1017.9 |
| 20260901220130 | 68 | 254 | 5.2 | 11.3 | 0.00 | 0.00 | 0.00 | 56 | 1017.9 |
| 20260901215601 | 67 | 303 | 4.3 | 7.8 | 0.00 | 0.00 | 0.00 | 57 | 1017.8 |
| 20260901215101 | 67 | 232 | 3.5 | 8.7 | 0.00 | 0.00 | 0.00 | 58 | 1017.7 |
| 20260901214556 | 66 | 250 | 4.3 | 13.0 | 0.00 | 0.00 | 0.00 | 58 | 1017.7 |
| 20260901214056 | 66 | 273 | 3.5 | 13.0 | 0.00 | 0.00 | 0.00 | 59 | 1017.7 |
| 20260901213556 | 65 | 275 | 3.5 | 11.3 | 0.00 | 0.00 | 0.00 | 60 | 1017.6 |
| 20260901213116 | 65 | 297 | 5.2 | 11.3 | 0.00 | 0.00 | 0.00 | 60 | 1017.6 |
| 20260901212556 | 65 | 246 | 4.3 | 9.6 | 0.00 | 0.00 | 0.00 | 59 | 1017.5 |
| 20260901212056 | 65 | 254 | 3.5 | 10.4 | 0.00 | 0.00 | 0.00 | 59 | 1017.3 |
| 20260901211601 | 66 | 240 | 4.3 | 10.4 | 0.00 | 0.00 | 0.00 | 58 | 1017.3 |
| 20260901211056 | 66 | 286 | 3.5 | 12.2 | 0.00 | 0.00 | 0.00 | 58 | 1017.3 |
| 20260901210555 | 66 | 242 | 4.3 | 15.6 | 0.00 | 0.00 | 0.00 | 57 | 1017.2 |
| 20260901205554 | 66 | 270 | 5.2 | 17.4 | 0.00 | 0.00 | 0.00 | 57 | 1017.2 |
| 20260901205054 | 66 | 302 | 6.1 | 17.4 | 0.00 | 0.00 | 0.00 | 57 | 1017.0 |
| 20260901204559 | 66 | 292 | 7.8 | 13.9 | 0.00 | 0.00 | 0.00 | 57 | 1017.0 |
| 20260901204054 | 65 | 258 | 7.8 | 13.9 | 0.00 | 0.00 | 0.00 | 59 | 1017.1 |
| 20260901203551 | 65 | 265 | 5.2 | 11.3 | 0.00 | 0.00 | 0.00 | 59 | 1017.1 |
| 20260901203101 | 65 | 261 | 5.2 | 12.2 | 0.00 | 0.00 | 0.00 | 60 | 1017.0 |
| 20260901202551 | 65 | 270 | 6.1 | 12.2 | 0.00 | 0.00 | 0.00 | 60 | 1017.0 |
| 20260901202054 | 64 | 231 | 6.1 | 13.0 | 0.00 | 0.00 | 0.00 | 60 | 1017.0 |
| 20260901201550 | 64 | 242 | 4.3 | 13.0 | 0.00 | 0.00 | 0.00 | 61 | 1017.0 |
| 20260901201050 | 64 | 279 | 5.2 | 14.8 | 0.00 | 0.00 | 0.00 | 61 | 1016.7 |
| 20260901200549 | 64 | 230 | 6.1 | 14.8 | 0.00 | 0.00 | 0.00 | 61 | 1016.7 |
| 20260901200049 | 64 | 256 | 6.1 | 11.3 | 0.00 | 0.00 | 0.00 | 62 | 1016.7 |
| 20260901195549 | 63 | 266 | 5.2 | 11.3 | 0.00 | 0.00 | 0.00 | 63 | 1016.7 |
| 20260901195051 | 63 | 238 | 5.2 | 10.4 | 0.00 | 0.00 | 0.00 | 64 | 1016.6 |
| 20260901194551 | 63 | 234 | 5.2 | 9.6 | 0.00 | 0.00 | 0.00 | 64 | 1016.5 |
| 20260901194050 | 63 | 250 | 3.5 | 9.6 | 0.00 | 0.00 | 0.00 | 64 | 1016.4 |
| 20260901193549 | 63 | 284 | 5.2 | 9.6 | 0.00 | 0.00 | 0.00 | 64 | 1016.5 |
| 20260901193053 | 62 | 241 | 4.3 | 9.6 | 0.00 | 0.00 | 0.00 | 65 | 1016.5 |
| 20260901192547 | 62 | 263 | 3.5 | 7.8 | 0.00 | 0.00 | 0.00 | 65 | 1016.3 |
| 20260901192054 | 62 | 257 | 3.5 | 7.8 | 0.00 | 0.00 | 0.00 | 66 | 1016.3 |
| 20260901191548 | 62 | 264 | 3.5 | 7.8 | 0.00 | 0.00 | 0.00 | 66 | 1016.3 |
| 20260901191050 | 62 | 281 | 3.5 | 7.8 | 0.00 | 0.00 | 0.00 | 66 | 1016.3 |
| 20260901190546 | 62 | 256 | 3.5 | 9.6 | 0.00 | 0.00 | 0.00 | 66 | 1016.2 |
| 20260901190046 | 62 | 266 | 4.3 | 10.4 | 0.00 | 0.00 | 0.00 | 65 | 1016.2 |
| 20260901185545 | 63 | 271 | 4.3 | 11.3 | 0.00 | 0.00 | 0.00 | 65 | 1016.2 |
| 20260901185047 | 63 | 275 | 6.1 | 11.3 | 0.00 | 0.00 | 0.00 | 64 | 1016.3 |
| 20260901184548 | 63 | 247 | 5.2 | 13.0 | 0.00 | 0.00 | 0.00 | 63 | 1016.3 |
| 20260901184046 | 64 | 281 | 5.2 | 13.0 | 0.00 | 0.00 | 0.00 | 61 | 1016.2 |
| 20260901183545 | 65 | 243 | 7.8 | 13.9 | 0.00 | 0.00 | 0.00 | 60 | 1016.2 |
| 20260901183050 | 65 | 275 | 7.8 | 15.6 | 0.00 | 0.00 | 0.00 | 60 | 1016.2 |
| 20260901182548 | 64 | 276 | 8.7 | 13.0 | 0.00 | 0.00 | 0.00 | 62 | 1016.2 |
| 20260901182044 | 64 | 249 | 8.7 | 15.6 | 0.00 | 0.00 | 0.00 | 62 | 1016.3 |
| 20260901181547 | 64 | 278 | 7.8 | 15.6 | 0.00 | 0.00 | 0.00 | 63 | 1016.3 |
| 20260901181044 | 63 | 263 | 7.8 | 13.9 | 0.00 | 0.00 | 0.00 | 65 | 1016.3 |
| 20260901180543 | 62 | 284 | 6.1 | 13.0 | 0.00 | 0.00 | 0.00 | 66 | 1016.3 |
| 20260901180041 | 62 | 242 | 4.3 | 10.4 | 0.00 | 0.00 | 0.00 | 67 | 1016.3 |
| 20260901175540 | 62 | 254 | 5.2 | 10.4 | 0.00 | 0.00 | 0.00 | 67 | 1016.4 |
| 20260901175040 | 62 | 277 | 4.3 | 10.4 | 0.00 | 0.00 | 0.00 | 66 | 1016.4 |
| 20260901174539 | 62 | 246 | 3.5 | 8.7 | 0.00 | 0.00 | 0.00 | 66 | 1016.5 |
| 20260901174040 | 62 | 260 | 3.5 | 7.8 | 0.00 | 0.00 | 0.00 | 66 | 1016.5 |
| 20260901173546 | 62 | 269 | 2.6 | 7.8 | 0.00 | 0.00 | 0.00 | 65 | 1016.6 |
| 20260901173051 | 63 | 269 | 2.6 | 7.0 | 0.00 | 0.00 | 0.00 | 65 | 1016.5 |
| 20260901172539 | 63 | 300 | 2.6 | 7.8 | 0.00 | 0.00 | 0.00 | 65 | 1016.5 |
| 20260901172040 | 63 | 317 | 3.5 | 10.4 | 0.00 | 0.00 | 0.00 | 65 | 1016.5 |
| 20260901171540 | 63 | 273 | 2.6 | 10.4 | 0.00 | 0.00 | 0.00 | 64 | 1016.5 |
| 20260901171036 | 63 | 277 | 2.6 | 10.4 | 0.00 | 0.00 | 0.00 | 64 | 1016.6 |
| 20260901170536 | 63 | 271 | 3.5 | 11.3 | 0.00 | 0.00 | 0.00 | 64 | 1016.6 |
| 20260901170034 | 63 | 310 | 4.3 | 11.3 | 0.00 | 0.00 | 0.00 | 64 | 1016.6 |
| 20260901165535 | 64 | 245 | 4.3 | 10.4 | 0.00 | 0.01 | 0.00 | 63 | 1016.7 |
| 20260901165037 | 64 | 271 | 4.3 | 10.4 | 0.00 | 0.01 | 0.00 | 63 | 1016.7 |
| 20260901164534 | 64 | 259 | 5.2 | 11.3 | 0.00 | 0.01 | 0.00 | 62 | 1016.8 |
| 20260901164033 | 64 | 263 | 5.2 | 13.0 | 0.00 | 0.01 | 0.00 | 62 | 1016.8 |
| 20260901163533 | 64 | 240 | 7.0 | 12.2 | 0.00 | 0.01 | 0.00 | 62 | 1016.7 |
| 20260901163033 | 64 | 241 | 6.1 | 13.0 | 0.00 | 0.01 | 0.00 | 62 | 1016.9 |
| 20260901162532 | 64 | 254 | 7.8 | 12.2 | 0.00 | 0.01 | 0.00 | 62 | 1016.9 |
| 20260901162032 | 64 | 254 | 6.1 | 12.2 | 0.00 | 0.01 | 0.00 | 62 | 1017.0 |
| 20260901161535 | 64 | 293 | 7.0 | 12.2 | 0.00 | 0.01 | 0.00 | 63 | 1017.0 |
| 20260901161031 | 64 | 292 | 4.3 | 9.6 | 0.00 | 0.01 | 0.00 | 64 | 1017.0 |
| 20260901160528 | 64 | 280 | 4.3 | 9.6 | 0.00 | 0.01 | 0.00 | 64 | 1017.1 |
| 20260901160031 | 64 | 238 | 5.2 | 9.6 | 0.00 | 0.01 | 0.00 | 64 | 1017.2 |
| 20260901155528 | 64 | 294 | 3.5 | 9.6 | 0.00 | 0.01 | 0.00 | 64 | 1017.2 |
| 20260901155030 | 63 | 307 | 4.3 | 9.6 | 0.00 | 0.01 | 0.00 | 65 | 1017.4 |
| 20260901154527 | 63 | 242 | 3.5 | 8.7 | 0.00 | 0.01 | 0.00 | 65 | 1017.4 |
| 20260901154026 | 63 | 257 | 2.6 | 8.7 | 0.00 | 0.01 | 0.00 | 66 | 1017.5 |
| 20260901153525 | 62 | 284 | 4.3 | 8.7 | 0.00 | 0.01 | 0.00 | 67 | 1017.6 |
| 20260901153031 | 61 | 267 | 2.6 | 7.8 | 0.00 | 0.01 | 0.00 | 68 | 1017.8 |
| 20260901152522 | 61 | 292 | 2.6 | 6.1 | 0.00 | 0.01 | 0.00 | 69 | 1017.9 |
| 20260901152022 | 61 | 277 | 1.7 | 4.3 | 0.00 | 0.01 | 0.00 | 70 | 1018.0 |
| 20260901151521 | 60 | 242 | 0.9 | 5.2 | 0.00 | 0.01 | 0.00 | 70 | 1018.0 |
| 20260901151021 | 60 | 271 | 0.9 | 2.6 | 0.00 | 0.01 | 0.00 | 71 | 1018.1 |
| 20260901150519 | 60 | 327 | 0.0 | 2.6 | 0.00 | 0.01 | 0.00 | 71 | 1018.2 |
| 20260901150019 | 60 | 294 | 0.0 | 2.6 | 0.00 | 0.01 | 0.00 | 71 | 1018.2 |
| 20260901145519 | 60 | 294 | 0.0 | 1.7 | 0.00 | 0.01 | 0.00 | 70 | 1018.2 |
| 20260901145018 | 60 | 293 | 0.0 | 0.0 | 0.00 | 0.01 | 0.00 | 70 | 1018.2 |
| 20260901144519 | 61 | 293 | 0.0 | 0.0 | 0.00 | 0.01 | 0.00 | 69 | 1018.2 |
| 20260901144014 | 61 | 293 | 0.0 | 0.0 | 0.00 | 0.01 | 0.00 | 68 | 1018.2 |
| 20260901143513 | 62 | 293 | 0.0 | 1.7 | 0.00 | 0.01 | 0.00 | 66 | 1018.2 |
| 20260901143011 | 62 | 293 | 0.0 | 2.6 | 0.00 | 0.01 | 0.00 | 65 | 1018.1 |
| 20260901142510 | 63 | 293 | 0.9 | 4.3 | 0.00 | 0.01 | 0.00 | 64 | 1018.1 |
| 20260901142009 | 63 | 294 | 0.0 | 4.3 | 0.00 | 0.01 | 0.00 | 64 | 1018.1 |
| 20260901141508 | 63 | 308 | 0.9 | 3.5 | 0.00 | 0.01 | 0.00 | 63 | 1018.1 |
| 20260901141007 | 64 | 296 | 1.7 | 4.3 | 0.00 | 0.01 | 0.00 | 62 | 1018.0 |
| 20260901140506 | 64 | 290 | 0.9 | 4.3 | 0.00 | 0.01 | 0.00 | 61 | 1018.1 |
| 20260901140006 | 64 | 304 | 0.9 | 4.3 | 0.00 | 0.01 | 0.00 | 61 | 1018.1 |
| 20260901135504 | 65 | 259 | 1.7 | 7.0 | 0.00 | 0.01 | 0.01 | 61 | 1018.2 |
| 20260901135004 | 65 | 269 | 0.9 | 7.0 | 0.00 | 0.01 | 0.01 | 60 | 1018.3 |
| 20260901134503 | 65 | 304 | 0.9 | 6.1 | 0.00 | 0.01 | 0.01 | 60 | 1018.5 |
| 20260901134002 | 65 | 245 | 1.7 | 7.0 | 0.00 | 0.01 | 0.01 | 60 | 1018.5 |
| 20260901133502 | 65 | 265 | 1.7 | 7.8 | 0.00 | 0.01 | 0.01 | 60 | 1018.5 |
| 20260901133003 | 65 | 288 | 2.6 | 7.8 | 0.00 | 0.01 | 0.01 | 59 | 1018.5 |
| 20260901132503 | 65 | 253 | 2.6 | 9.6 | 0.00 | 0.01 | 0.01 | 59 | 1018.6 |
| 20260901132002 | 66 | 278 | 2.6 | 9.6 | 0.00 | 0.01 | 0.01 | 59 | 1018.5 |
| 20260901131500 | 66 | 280 | 3.5 | 8.7 | 0.00 | 0.01 | 0.01 | 58 | 1018.5 |
| 20260901131100 | 66 | 250 | 2.6 | 9.6 | 0.00 | 0.01 | 0.01 | 58 | 1018.6 |
| 20260901130600 | 66 | 287 | 5.2 | 10.4 | 0.00 | 0.01 | 0.01 | 58 | 1018.7 |
| 20260901130059 | 66 | 243 | 2.6 | 10.4 | 0.00 | 0.01 | 0.01 | 58 | 1018.8 |
| 20260901125602 | 66 | 284 | 2.6 | 7.8 | 0.00 | 0.01 | 0.01 | 58 | 1018.9 |
| 20260901125101 | 67 | 267 | 2.6 | 11.3 | 0.00 | 0.01 | 0.01 | 57 | 1019.0 |
| 20260901124557 | 67 | 251 | 6.1 | 12.2 | 0.00 | 0.01 | 0.01 | 57 | 1019.2 |
| 20260901124059 | 67 | 247 | 5.2 | 12.2 | 0.00 | 0.01 | 0.01 | 57 | 1019.2 |
| 20260901123557 | 66 | 277 | 5.2 | 12.2 | 0.00 | 0.01 | 0.01 | 57 | 1019.4 |
| 20260901123057 | 66 | 254 | 6.1 | 12.2 | 0.00 | 0.01 | 0.01 | 57 | 1019.5 |
| 20260901122557 | 66 | 297 | 6.1 | 12.2 | 0.00 | 0.01 | 0.01 | 57 | 1019.5 |
| 20260901122056 | 66 | 269 | 4.3 | 12.2 | 0.00 | 0.01 | 0.01 | 57 | 1019.5 |
| 20260901121556 | 67 | 268 | 5.2 | 13.0 | 0.00 | 0.01 | 0.01 | 57 | 1019.6 |
| 20260901121056 | 67 | 300 | 5.2 | 13.0 | 0.00 | 0.01 | 0.01 | 57 | 1019.7 |
| 20260901120558 | 67 | 286 | 5.2 | 10.4 | 0.00 | 0.01 | 0.01 | 57 | 1019.7 |
| 20260901120057 | 67 | 260 | 5.2 | 11.3 | 0.00 | 0.01 | 0.01 | 57 | 1019.7 |
| 20260901115555 | 67 | 295 | 5.2 | 11.3 | 0.00 | 0.01 | 0.01 | 57 | 1019.8 |
| 20260901115055 | 67 | 286 | 6.1 | 13.0 | 0.00 | 0.01 | 0.01 | 57 | 1019.8 |
| 20260901114556 | 67 | 281 | 7.0 | 13.0 | 0.00 | 0.01 | 0.01 | 57 | 1019.9 |
| 20260901114055 | 67 | 305 | 5.2 | 11.3 | 0.00 | 0.01 | 0.01 | 57 | 1019.9 |
| 20260901113559 | 67 | 238 | 7.0 | 11.3 | 0.00 | 0.01 | 0.01 | 57 | 1019.8 |
| 20260901113056 | 67 | 267 | 5.2 | 11.3 | 0.00 | 0.01 | 0.01 | 57 | 1019.8 |
| 20260901112554 | 67 | 279 | 6.1 | 9.6 | 0.00 | 0.01 | 0.01 | 57 | 1019.8 |
| 20260901112055 | 67 | 265 | 5.2 | 9.6 | 0.00 | 0.01 | 0.01 | 57 | 1019.8 |
| 20260901111555 | 67 | 257 | 3.5 | 8.7 | 0.00 | 0.01 | 0.01 | 57 | 1019.9 |
| 20260901111055 | 67 | 267 | 4.3 | 10.4 | 0.00 | 0.01 | 0.01 | 57 | 1019.8 |
| 20260901110554 | 67 | 263 | 4.3 | 10.4 | 0.00 | 0.01 | 0.01 | 57 | 1019.9 |
| 20260901110058 | 67 | 275 | 4.3 | 9.6 | 0.00 | 0.01 | 0.01 | 57 | 1019.9 |
| 20260901105554 | 67 | 268 | 5.2 | 9.6 | 0.00 | 0.01 | 0.01 | 57 | 1019.9 |
| 20260901105056 | 66 | 262 | 4.3 | 7.8 | 0.00 | 0.01 | 0.01 | 58 | 1019.9 |
| 20260901104556 | 66 | 265 | 2.6 | 7.0 | 0.00 | 0.01 | 0.01 | 58 | 1019.9 |
| 20260901104054 | 66 | 269 | 2.6 | 7.0 | 0.00 | 0.01 | 0.01 | 57 | 1019.9 |
| 20260901103552 | 67 | 246 | 2.6 | 6.1 | 0.00 | 0.01 | 0.01 | 57 | 1019.8 |
| 20260901103053 | 67 | 264 | 1.7 | 7.8 | 0.00 | 0.01 | 0.01 | 57 | 1019.8 |
| 20260901102553 | 67 | 248 | 2.6 | 7.8 | 0.00 | 0.01 | 0.01 | 57 | 1019.7 |
| 20260901102053 | 67 | 277 | 2.6 | 7.0 | 0.00 | 0.01 | 0.01 | 57 | 1019.8 |
| 20260901101556 | 67 | 244 | 3.5 | 7.0 | 0.00 | 0.01 | 0.01 | 57 | 1019.8 |
| 20260901101052 | 67 | 239 | 2.6 | 7.0 | 0.00 | 0.01 | 0.01 | 56 | 1019.8 |
| 20260901100552 | 68 | 271 | 2.6 | 6.1 | 0.00 | 0.01 | 0.01 | 56 | 1019.9 |
| 20260901100053 | 68 | 268 | 2.6 | 6.1 | 0.00 | 0.01 | 0.01 | 55 | 1020.0 |
| 20260901095552 | 68 | 281 | 2.6 | 4.3 | 0.00 | 0.01 | 0.01 | 55 | 1020.0 |
| 20260901095051 | 68 | 273 | 1.7 | 4.3 | 0.00 | 0.01 | 0.01 | 55 | 1020.0 |
| 20260901094552 | 68 | 269 | 1.7 | 6.1 | 0.00 | 0.01 | 0.01 | 55 | 1020.0 |
| 20260901094052 | 68 | 290 | 1.7 | 6.1 | 0.00 | 0.01 | 0.01 | 55 | 1020.0 |
| 20260901093550 | 68 | 271 | 2.6 | 7.0 | 0.00 | 0.01 | 0.01 | 54 | 1020.0 |
| 20260901093054 | 68 | 283 | 2.6 | 7.0 | 0.00 | 0.01 | 0.01 | 54 | 1019.9 |
| 20260901092551 | 69 | 300 | 2.6 | 7.0 | 0.00 | 0.01 | 0.01 | 54 | 1019.9 |
| 20260901092053 | 69 | 279 | 1.7 | 7.0 | 0.00 | 0.01 | 0.01 | 54 | 1019.9 |
| 20260901091554 | 69 | 283 | 2.6 | 7.0 | 0.00 | 0.01 | 0.01 | 53 | 1019.9 |
| 20260901091053 | 69 | 290 | 1.7 | 7.0 | 0.00 | 0.01 | 0.01 | 53 | 1019.8 |
| 20260901090549 | 69 | 244 | 1.7 | 6.1 | 0.00 | 0.01 | 0.01 | 53 | 1019.8 |
| 20260901090049 | 69 | 231 | 2.6 | 8.7 | 0.00 | 0.01 | 0.01 | 53 | 1019.8 |
| 20260901085550 | 69 | 291 | 2.6 | 8.7 | 0.00 | 0.01 | 0.01 | 52 | 1019.8 |
| 20260901085049 | 70 | 281 | 3.5 | 10.4 | 0.00 | 0.01 | 0.01 | 52 | 1019.7 |
| 20260901084549 | 70 | 275 | 3.5 | 8.7 | 0.00 | 0.01 | 0.01 | 52 | 1019.8 |
| 20260901084049 | 70 | 287 | 4.3 | 9.6 | 0.00 | 0.01 | 0.01 | 52 | 1019.7 |
| 20260901083549 | 70 | 278 | 2.6 | 8.7 | 0.00 | 0.01 | 0.01 | 51 | 1019.7 |
| 20260901083049 | 70 | 279 | 2.6 | 8.7 | 0.00 | 0.01 | 0.01 | 51 | 1019.7 |
| 20260901082548 | 70 | 303 | 3.5 | 8.7 | 0.00 | 0.01 | 0.01 | 50 | 1019.7 |
| 20260901082048 | 71 | 289 | 1.7 | 8.7 | 0.00 | 0.01 | 0.01 | 50 | 1019.6 |
| 20260901081553 | 71 | 254 | 2.6 | 7.8 | 0.00 | 0.01 | 0.01 | 50 | 1019.6 |
| 20260901081048 | 71 | 286 | 3.5 | 7.8 | 0.00 | 0.01 | 0.01 | 49 | 1019.6 |
| 20260901080551 | 71 | 276 | 3.5 | 7.8 | 0.00 | 0.01 | 0.01 | 49 | 1019.5 |
| 20260901080047 | 71 | 281 | 3.5 | 7.8 | 0.00 | 0.01 | 0.01 | 49 | 1019.4 |
| 20260901075548 | 72 | 324 | 3.5 | 9.6 | 0.00 | 0.01 | 0.01 | 48 | 1019.3 |
| 20260901075047 | 72 | 293 | 4.3 | 12.2 | 0.00 | 0.01 | 0.01 | 48 | 1019.3 |
| 20260901074547 | 72 | 256 | 3.5 | 12.2 | 0.00 | 0.01 | 0.01 | 47 | 1019.2 |
| 20260901074046 | 72 | 250 | 3.5 | 12.2 | 0.00 | 0.01 | 0.01 | 47 | 1019.2 |
| 20260901073546 | 72 | 263 | 6.1 | 10.4 | 0.00 | 0.01 | 0.01 | 47 | 1019.1 |
| 20260901073047 | 73 | 236 | 4.3 | 11.3 | 0.00 | 0.01 | 0.01 | 47 | 1019.1 |
| 20260901072546 | 73 | 285 | 4.3 | 11.3 | 0.00 | 0.01 | 0.01 | 46 | 1019.0 |
| 20260901072045 | 74 | 253 | 6.1 | 10.4 | 0.00 | 0.01 | 0.01 | 46 | 1019.1 |
| 20260901071546 | 74 | 259 | 5.2 | 10.4 | 0.00 | 0.01 | 0.01 | 46 | 1019.1 |
| 20260901071045 | 74 | 266 | 3.5 | 7.8 | 0.00 | 0.01 | 0.01 | 45 | 1019.1 |
| 20260901070545 | 75 | 278 | 1.7 | 9.6 | 0.00 | 0.01 | 0.01 | 45 | 1019.1 |
| 20260901070045 | 75 | 256 | 2.6 | 9.6 | 0.00 | 0.01 | 0.01 | 44 | 1019.1 |
| 20260901065545 | 75 | 261 | 2.6 | 9.6 | 0.00 | 0.01 | 0.01 | 43 | 1019.1 |
| 20260901065045 | 75 | 304 | 3.5 | 9.6 | 0.00 | 0.01 | 0.01 | 41 | 1019.0 |
| 20260901064544 | 75 | 256 | 3.5 | 16.5 | 0.00 | 0.01 | 0.01 | 41 | 1019.0 |
| 20260901064045 | 75 | 244 | 7.0 | 16.5 | 0.00 | 0.01 | 0.01 | 41 | 1019.1 |
| 20260901063543 | 75 | 260 | 5.2 | 14.8 | 0.00 | 0.01 | 0.01 | 41 | 1019.1 |
| 20260901063044 | 76 | 294 | 7.0 | 14.8 | 0.00 | 0.01 | 0.01 | 41 | 1019.1 |
| 20260901062545 | 76 | 234 | 6.1 | 12.2 | 0.00 | 0.01 | 0.01 | 41 | 1019.1 |
| 20260901062043 | 76 | 270 | 5.2 | 12.2 | 0.00 | 0.01 | 0.01 | 40 | 1019.1 |
| 20260901061543 | 76 | 219 | 6.1 | 10.4 | 0.00 | 0.01 | 0.01 | 40 | 1019.0 |
| 20260901061044 | 76 | 290 | 4.3 | 15.6 | 0.00 | 0.01 | 0.01 | 39 | 1019.1 |
| 20260901060543 | 76 | 279 | 7.0 | 15.6 | 0.00 | 0.01 | 0.01 | 39 | 1019.0 |
| 20260901060041 | 76 | 284 | 6.1 | 13.9 | 0.00 | 0.01 | 0.01 | 39 | 1019.1 |
| 20260901055541 | 76 | 250 | 7.8 | 14.8 | 0.00 | 0.01 | 0.01 | 39 | 1019.2 |
| 20260901055041 | 76 | 242 | 8.7 | 19.1 | 0.00 | 0.01 | 0.01 | 38 | 1019.3 |
| 20260901054544 | 76 | 261 | 8.7 | 18.2 | 0.00 | 0.01 | 0.01 | 38 | 1019.3 |
| 20260901054042 | 76 | 226 | 7.8 | 19.1 | 0.00 | 0.01 | 0.01 | 37 | 1019.4 |
| 20260901053543 | 76 | 298 | 10.4 | 19.1 | 0.00 | 0.01 | 0.01 | 37 | 1019.4 |
| 20260901053104 | 76 | 259 | 7.0 | 18.2 | 0.00 | 0.01 | 0.01 | 38 | 1019.4 |
| 20260901052544 | 76 | 268 | 9.6 | 16.5 | 0.00 | 0.01 | 0.01 | 38 | 1019.4 |
| 20260901052039 | 76 | 237 | 7.8 | 17.4 | 0.00 | 0.01 | 0.01 | 38 | 1019.4 |
| 20260901051559 | 76 | 235 | 9.6 | 17.4 | 0.00 | 0.01 | 0.01 | 37 | 1019.4 |
| 20260901051041 | 76 | 265 | 7.8 | 16.5 | 0.00 | 0.01 | 0.01 | 38 | 1019.4 |
| 20260901050538 | 76 | 336 | 6.1 | 12.2 | 0.00 | 0.01 | 0.01 | 39 | 1019.5 |
| 20260901050037 | 76 | 282 | 7.8 | 16.5 | 0.00 | 0.01 | 0.01 | 39 | 1019.6 |
| 20260901045537 | 76 | 253 | 6.1 | 13.9 | 0.00 | 0.01 | 0.01 | 39 | 1019.6 |
| 20260901045036 | 76 | 284 | 8.7 | 18.2 | 0.00 | 0.01 | 0.01 | 38 | 1019.6 |
| 20260901044548 | 76 | 294 | 10.4 | 18.2 | 0.00 | 0.01 | 0.01 | 38 | 1019.6 |
| 20260901044035 | 76 | 245 | 7.0 | 15.6 | 0.00 | 0.01 | 0.01 | 39 | 1019.6 |
| 20260901043536 | 75 | 280 | 8.7 | 20.0 | 0.00 | 0.01 | 0.01 | 39 | 1019.6 |
| 20260901043034 | 75 | 258 | 11.3 | 20.0 | 0.00 | 0.01 | 0.01 | 39 | 1019.8 |
| 20260901042532 | 76 | 255 | 9.6 | 16.5 | 0.00 | 0.01 | 0.01 | 38 | 1019.8 |
| 20260901042032 | 76 | 309 | 7.8 | 14.8 | 0.00 | 0.01 | 0.01 | 39 | 1019.8 |
| 20260901041533 | 76 | 285 | 7.8 | 14.8 | 0.00 | 0.01 | 0.01 | 40 | 1019.9 |
| 20260901041030 | 76 | 273 | 6.1 | 16.5 | 0.00 | 0.01 | 0.01 | 40 | 1019.9 |
| 20260901040530 | 76 | 259 | 7.8 | 16.5 | 0.00 | 0.01 | 0.01 | 40 | 1020.0 |
| 20260901040028 | 75 | 254 | 6.1 | 13.0 | 0.00 | 0.01 | 0.01 | 41 | 1020.1 |
| 20260901035531 | 75 | 304 | 6.1 | 14.8 | 0.00 | 0.01 | 0.01 | 40 | 1020.1 |
| 20260901035026 | 75 | 275 | 7.8 | 15.6 | 0.00 | 0.01 | 0.01 | 40 | 1020.2 |
| 20260901034529 | 75 | 250 | 8.7 | 15.6 | 0.00 | 0.01 | 0.01 | 40 | 1020.3 |
| 20260901034024 | 75 | 250 | 7.0 | 13.9 | 0.00 | 0.01 | 0.01 | 41 | 1020.3 |
| 20260901033523 | 75 | 227 | 7.0 | 13.9 | 0.00 | 0.01 | 0.01 | 41 | 1020.4 |
| 20260901033027 | 75 | 256 | 6.1 | 13.9 | 0.00 | 0.01 | 0.01 | 41 | 1020.6 |
| 20260901032521 | 75 | 269 | 6.1 | 13.9 | 0.00 | 0.01 | 0.01 | 41 | 1020.6 |